This demonstration page uses our WeatherBlox Daily Observations layout. Learn more.

Left ArrowRight Arrow

41.55636, -103.73856

Hourly Observations for July 4, 2020

Temp ( °F °C ) Dew Point ( °F °C ) Humidity (%) Winds ( mph kmh ) Pressure ( in mb ) Visibility ( mi km ) Precip ( " mm )
6:58 pm 18:58 Partly Cloudy 87 30.5 45 7.4 23 23 SSE 21 33 29.93 1014 10 16 0.00 0.00
7:58 pm 19:58 Mostly Cloudy 75 23.8 47 8.6 38 38 SSW 25 41 30.00 1016 10 16 0.00 0.00
8:58 pm 20:58 Mostly Cloudy with Thunderstorms 67 19.2 51 10.7 58 58 W 14 22 30.08 1019 10 16 0.03 0.76
9:58 pm 21:58 Clear 68 20.1 51 10.7 55 55 SSE 15 24 30.06 1018 10 16 0.02 0.51
10:58 pm 22:58 Mostly Cloudy 68 20 49 9.5 51 51 SSE 17 28 30.03 1017 10 16 0.00 0.00
11:58 pm 23:58 Clear 70 20.9 51 10.8 53 53 SSW 26 43 29.99 1016 10 16 0.00 0.00
12:58 am 00:58 Partly Cloudy 67 19.5 53 11.4 60 60 SSW 25 41 29.98 1015 10 16 0.00 0.00
1:58 am 01:58 Clear 68 19.8 51 10.3 54 54 SSW 30 48 29.98 1015 10 16 0.00 0.00
2:58 am 02:58 Clear 66 18.7 51 10.8 60 60 SSW 28 44 29.97 1015 10 16 0.00 0.00
3:58 am 03:58 Clear 65 18.1 51 10.5 61 61 SSW 30 48 29.95 1014 10 16 0.00 0.00
4:59 am 04:59 Mostly Clear 64 17.7 51 10.4 62 62 SSW 30 48 29.95 1014 10 16 0.00 0.00
5:58 am 05:58 Sunny 64 17.5 52 11.1 66 66 SSW 25 41 29.93 1014 10 16 0.00 0.00
6:58 am 06:58 Sunny 66 18.9 53 11.7 63 63 SW 15 24 29.95 1014 10 16 0.00 0.00
7:58 am 07:58 Sunny 70 21.1 54 12.3 57 57 SSW 14 22 29.97 1015 10 16 0.00 0.00
8:58 am 08:58 Sunny 75 23.9 54 12.4 49 49 WSW 6 9 29.99 1016 10 16 0.00 0.00
9:58 am 09:58 Sunny 80 26.4 52 11.3 39 39 Calm 29.99 1016 10 16 0.00 0.00
10:58 am 10:58 Sunny 83 28.5 52 11 34 34 ENE 6 9 29.98 1015 10 16 0.00 0.00
11:58 am 11:58 Sunny 88 31 49 9.4 26 26 SE 6 9 29.96 1015 10 16 0.00 0.00
12:58 pm 12:58 Sunny 89 31.6 47 8.1 23 23 S 13 20 29.95 1014 10 16 0.00 0.00
1:58 pm 13:58 Mostly Sunny 90 32 45 7.4 22 22 S 10 17 29.93 1014 10 16 0.00 0.00
2:58 pm 14:58 Mostly Sunny 91 33 45 7.3 20 20 SSW 21 33 29.92 1013 10 16 0.00 0.00
3:58 pm 15:58 Sunny 90 32 43 5.9 19 19 S 16 26 29.92 1013 10 16 0.00 0.00
4:58 pm 16:58 Sunny 89 31.4 42 5.6 20 20 SSE 20 31 29.91 1013 10 16 0.00 0.00
5:58 pm 17:58 Sunny 88 30.9 42 5.5 20 20 SSE 16 26 29.91 1013 10 16 0.00 0.00

Powered by AerisWeather